TimeAKST,TemperatureF,Dew PointF,Humidity,Sea Level PressureIn,VisibilityMPH,Wind Direction,Wind SpeedMPH,Gust SpeedMPH,PrecipitationIn,Events,Conditions,WindDirDegrees,DateUTC
12:16 AM,5.0,3.2,92,29.88,10.0,NE,8.1,-,N/A,Snow,Light Snow,50,2013-01-22 09:16:00
12:36 AM,5.0,3.2,92,29.87,10.0,NE,8.1,-,N/A,Snow,Light Snow,40,2013-01-22 09:36:00
12:55 AM,4.6,2.3,90,29.87,10.0,NNE,8.1,-,N/A,Snow,Light Snow,30,2013-01-22 09:55:00
1:16 AM,5.0,3.2,92,29.86,10.0,NE,8.1,-,N/A,Snow,Light Snow,40,2013-01-22 10:16:00
1:36 AM,5.0,3.2,92,29.86,10.0,NE,6.9,-,N/A,Snow,Light Snow,40,2013-01-22 10:36:00
1:55 AM,4.5,2.3,91,29.86,10.0,NE,6.9,-,N/A,Snow,Light Snow,40,2013-01-22 10:55:00
2:16 AM,5.0,3.2,92,29.86,10.0,NE,6.9,-,N/A,Snow,Light Snow,40,2013-01-22 11:16:00
2:36 AM,5.0,3.2,92,29.86,10.0,NE,6.9,-,N/A,Snow,Light Snow,40,2013-01-22 11:36:00
3:36 AM,5.0,3.2,92,29.84,10.0,NE,8.1,-,N/A,Snow,Light Snow Showers,40,2013-01-22 12:36:00
3:55 AM,5.9,3.4,89,29.83,10.0,NNE,5.8,-,N/A,Snow,Light Snow Showers,30,2013-01-22 12:55:00
4:36 AM,6.8,3.2,85,29.83,10.0,NE,5.8,-,N/A,Snow,Light Snow Showers,50,2013-01-22 13:36:00
4:55 AM,6.1,3.4,89,29.84,10.0,NE,6.9,-,N/A,Snow,Light Snow Showers,40,2013-01-22 13:55:00
4:56 AM,6.8,3.2,85,29.84,10.0,NE,6.9,-,N/A,Snow,Light Snow Showers,50,2013-01-22 13:56:00
5:55 AM,5.9,3.2,89,29.83,10.0,NE,6.9,-,N/A,Snow,Light Snow,40,2013-01-22 14:55:00
5:56 AM,6.8,3.2,85,29.83,10.0,NE,8.1,-,N/A,Snow,Light Snow,50,2013-01-22 14:56:00
6:16 AM,6.8,3.2,85,29.83,10.0,NE,6.9,-,N/A,Snow,Light Snow Showers,40,2013-01-22 15:16:00
6:36 AM,5.0,3.2,92,29.83,10.0,NE,5.8,-,N/A,Snow,Light Snow Showers,40,2013-01-22 15:36:00
6:55 AM,6.8,3.2,85,29.72,10.0,NNE,4.6,-,N/A,,Partly Cloudy,30,2013-01-22 15:55:00
7:36 AM,5.0,3.2,92,29.83,10.0,NE,5.8,-,N/A,Snow,Light Snow Showers,40,2013-01-22 16:36:00
7:55 AM,5.4,2.7,89,29.82,10.0,NNE,5.8,-,N/A,Snow,Light Snow Showers,30,2013-01-22 16:55:00
8:16 AM,5.0,3.2,92,29.82,10.0,NNE,5.8,-,N/A,,Clear,30,2013-01-22 17:16:00
8:36 AM,5.0,3.2,92,29.83,10.0,NNE,5.8,-,N/A,Snow,Light Snow Showers,30,2013-01-22 17:36:00
8:55 AM,5.5,2.7,88,29.83,10.0,NE,5.8,-,N/A,,Partly Cloudy,40,2013-01-22 17:55:00
9:55 AM,5.5,2.7,88,29.82,10.0,NE,5.8,-,N/A,,Clear,40,2013-01-22 18:55:00
10:55 AM,5.5,2.3,86,29.82,10.0,NE,5.8,-,N/A,,Clear,40,2013-01-22 19:55:00
11:55 AM,5.5,2.3,86,29.81,10.0,NE,4.6,-,N/A,,Clear,40,2013-01-22 20:55:00
12:55 PM,6.3,2.8,86,29.81,10.0,NE,4.6,-,N/A,,Clear,40,2013-01-22 21:55:00
1:16 PM,6.8,3.2,85,29.80,10.0,Variable,4.6,-,N/A,Snow,Light Snow,0,2013-01-22 22:16:00
1:36 PM,6.8,3.2,85,29.79,10.0,North,9.2,-,N/A,Snow,Light Snow,10,2013-01-22 22:36:00
1:55 PM,7.2,3.7,86,29.79,10.0,Variable,6.9,-,N/A,Snow,Light Snow,0,2013-01-22 22:55:00
2:55 PM,7.2,3.6,85,29.77,10.0,NNE,6.9,-,N/A,Snow,Light Snow Showers,20,2013-01-22 23:55:00
3:55 PM,3.6,1.4,91,29.76,10.0,NE,5.8,-,N/A,Snow,Light Snow Showers,40,2013-01-23 00:55:00
4:55 PM,2.8,1.0,92,29.75,10.0,NE,4.6,-,N/A,Snow,Light Snow,50,2013-01-23 01:55:00
5:55 PM,4.5,2.1,90,29.74,10.0,NE,5.8,-,N/A,Snow,Light Snow,50,2013-01-23 02:55:00
6:55 PM,5.9,3.0,88,29.73,10.0,NE,4.6,-,N/A,Snow,Light Snow,40,2013-01-23 03:55:00
6:56 PM,6.8,3.2,85,29.73,10.0,Variable,4.6,-,N/A,,Mostly Cloudy,0,2013-01-23 03:56:00
7:36 PM,6.8,3.2,85,29.73,10.0,NE,6.9,-,N/A,Snow,Light Snow Showers,40,2013-01-23 04:36:00
7:55 PM,5.5,2.7,88,29.73,10.0,NNE,5.8,-,N/A,Snow,Light Snow Showers,30,2013-01-23 04:55:00
8:55 PM,5.9,3.0,88,29.72,10.0,NE,6.9,-,N/A,Snow,Light Snow Showers,40,2013-01-23 05:55:00
9:36 PM,6.8,3.2,85,29.71,10.0,NE,5.8,-,N/A,Snow,Light Snow Showers,40,2013-01-23 06:36:00
9:55 PM,6.6,3.4,87,29.71,10.0,Variable,6.9,-,N/A,Snow,Light Snow,0,2013-01-23 06:55:00
10:36 PM,6.8,3.2,85,29.71,10.0,NNE,5.8,-,N/A,Snow,Light Snow Showers,30,2013-01-23 07:36:00
10:55 PM,5.9,2.8,87,29.71,10.0,NE,5.8,-,N/A,Snow,Light Snow Showers,50,2013-01-23 07:55:00
11:16 PM,6.8,3.2,85,29.71,10.0,NE,6.9,-,N/A,,Mostly Cloudy,40,2013-01-23 08:16:00
11:36 PM,5.0,3.2,92,29.70,10.0,NE,5.8,-,N/A,Snow,Light Snow Showers,40,2013-01-23 08:36:00
11:55 PM,5.9,2.8,87,29.71,10.0,Variable,5.8,-,N/A,Snow,Light Snow Showers,0,2013-01-23 08:55:00